Location: Clarion
(42.7316°N, 93.7330°W)
Time: 08:33:05
(UTC+00:00)

Cosmos 1023 Rocket - Pass Details

Date: 22 April 2026
Orbit: 732 x 766 km, 74.1° (Epoch: 16 May)

Event Time Altitude Azimuth Distance (km) Brightness Sun altitude
Rises 03:47:31 0° 339° (NNW) 3,181 8.8 -25.7°
Reaches altitude 10° 03:49:53 10° 339° (NNW) 2,250 7.8 -26.0°
Enters shadow 03:54:53 84° 281° (W) 744 4.3 -26.6°
